Terminal Aerodrome Forecast
Issued by NWS Billings, MT

Home | Current Version | Previous Version | Text Only | Print | Product List | Glossary On
Versions: 1 2 3 4 5 6 7 8 9 10 11 12 13 14 15 16 17 18 19 20 21 22 23 24 25 26 27 28 29 30 31 32 33 34 35 36
000
FTUS45 KBYZ 292339
TAFBIL
TAF
KBIL 292339Z 3000/3024 09008KT P6SM FEW060
     FM300800 23009KT P6SM FEW100 BKN200
     FM301200 25011KT P6SM VCSH SCT070 BKN100
     FM302000 35009KT P6SM VCTS SCT050CB BKN080=

USA.gov is the U.S. government's official web portal to all federal, state and local government web resources and services.